| time (UTC) | temp C | wind direction | speed KPH | gust KPH | rain 1hr cm | rain 24hr cm | rain mn cm | humidity % | barometer mb |
| 20260905032508 | 26 | 190 | 0.0 | 6.4 | 0.00 | 0.00 | 0.00 | 67 | 1013.6 |
| 20260905032009 | 26 | 190 | 0.0 | 4.8 | 0.00 | 0.00 | 0.00 | 67 | 1013.6 |
| 20260905031621 | 26 | 0 | 0.0 | 6.4 | 0.00 | 0.00 | 0.00 | 65 | 1012.1 |
| 20260905031509 | 26 | 190 | 0.0 | 6.4 | 0.00 | 0.00 | 0.00 | 66 | 1013.6 |
| 20260905031008 | 27 | 190 | 1.6 | 6.4 | 0.00 | 0.00 | 0.00 | 65 | 1013.4 |
| 20260905030508 | 27 | 190 | 0.0 | 0.0 | 0.00 | 0.00 | 0.00 | 64 | 1013.3 |
| 20260905030106 | 27 | 0 | 0.0 | 0.0 | 0.00 | 0.00 | 0.00 | 64 | 1011.9 |
| 20260905030008 | 27 | 190 | 0.0 | 0.0 | 0.00 | 0.00 | 0.00 | 64 | 1013.3 |
| 20260905025507 | 27 | 190 | 0.0 | 0.0 | 0.00 | 0.00 | 0.00 | 63 | 1013.1 |
| 20260905025007 | 27 | 190 | 0.0 | 0.0 | 0.00 | 0.00 | 0.00 | 63 | 1012.9 |
| 20260905024611 | 27 | 0 | 0.0 | 0.0 | 0.00 | 0.00 | 0.00 | 63 | 1011.5 |
| 20260905024509 | 27 | 190 | 0.0 | 0.0 | 0.00 | 0.00 | 0.00 | 63 | 1012.9 |
| 20260905024007 | 27 | 190 | 0.0 | 0.0 | 0.00 | 0.00 | 0.00 | 62 | 1012.8 |
| 20260905023507 | 27 | 190 | 0.0 | 0.0 | 0.00 | 0.00 | 0.00 | 64 | 1012.7 |
| 20260905023105 | 27 | 0 | 0.0 | 0.0 | 0.00 | 0.00 | 0.00 | 64 | 1011.2 |
| 20260905023007 | 27 | 190 | 0.0 | 0.0 | 0.00 | 0.00 | 0.00 | 64 | 1012.5 |
| 20260905022511 | 27 | 190 | 0.0 | 0.0 | 0.00 | 0.00 | 0.00 | 64 | 1012.4 |
| 20260905022010 | 27 | 190 | 0.0 | 6.4 | 0.00 | 0.00 | 0.00 | 64 | 1012.3 |
| 20260905021600 | 27 | 0 | 0.0 | 6.4 | 0.00 | 0.00 | 0.00 | 63 | 1010.7 |
| 20260905021506 | 27 | 190 | 0.0 | 6.4 | 0.00 | 0.00 | 0.00 | 63 | 1012.1 |
| 20260905021006 | 27 | 190 | 0.0 | 6.4 | 0.00 | 0.00 | 0.00 | 63 | 1012.0 |
| 20260905020506 | 27 | 190 | 1.6 | 8.0 | 0.00 | 0.00 | 0.00 | 62 | 1011.8 |
| 20260905020105 | 27 | 190 | 1.6 | 8.0 | 0.00 | 0.00 | 0.00 | 62 | 1010.3 |
| 20260905020009 | 27 | 190 | 0.0 | 8.0 | 0.00 | 0.00 | 0.00 | 62 | 1011.6 |
| 20260905015507 | 27 | 190 | 3.2 | 8.0 | 0.00 | 0.00 | 0.00 | 62 | 1011.5 |
| 20260905015007 | 27 | 190 | 0.0 | 6.4 | 0.00 | 0.00 | 0.00 | 63 | 1011.3 |
| 20260905014604 | 27 | 190 | 3.2 | 8.0 | 0.00 | 0.00 | 0.00 | 63 | 1010.0 |
| 20260905014507 | 27 | 190 | 1.6 | 8.0 | 0.00 | 0.00 | 0.00 | 63 | 1011.3 |
| 20260905014006 | 27 | 190 | 1.6 | 8.0 | 0.00 | 0.00 | 0.00 | 63 | 1011.3 |
| 20260905013505 | 27 | 190 | 1.6 | 8.0 | 0.00 | 0.00 | 0.00 | 62 | 1011.3 |
| 20260905013109 | 28 | 190 | 3.2 | 9.7 | 0.00 | 0.00 | 0.00 | 61 | 1009.9 |
| 20260905013010 | 28 | 190 | 3.2 | 8.0 | 0.00 | 0.00 | 0.00 | 61 | 1011.2 |
| 20260905012505 | 28 | 190 | 3.2 | 9.7 | 0.00 | 0.00 | 0.00 | 61 | 1011.0 |
| 20260905012005 | 28 | 190 | 3.2 | 9.7 | 0.00 | 0.00 | 0.00 | 60 | 1010.9 |
| 20260905011606 | 28 | 190 | 3.2 | 6.4 | 0.00 | 0.00 | 0.00 | 59 | 1009.5 |
| 20260905011513 | 28 | 190 | 3.2 | 6.4 | 0.00 | 0.00 | 0.00 | 59 | 1010.9 |
| 20260905011005 | 28 | 190 | 0.0 | 6.4 | 0.00 | 0.00 | 0.00 | 58 | 1010.7 |
| 20260905010505 | 28 | 190 | 0.0 | 8.0 | 0.00 | 0.00 | 0.00 | 57 | 1010.5 |
| 20260905010108 | 29 | 0 | 0.0 | 14.5 | 0.00 | 0.00 | 0.00 | 55 | 1009.1 |
| 20260905010003 | 28 | 190 | 0.0 | 14.5 | 0.00 | 0.00 | 0.00 | 55 | 1010.4 |
| 20260905005503 | 29 | 190 | 3.2 | 14.5 | 0.00 | 0.00 | 0.00 | 54 | 1010.3 |
| 20260905005004 | 29 | 190 | 0.0 | 6.4 | 0.00 | 0.00 | 0.00 | 54 | 1010.1 |
| 20260905004602 | 30 | 190 | 0.0 | 3.2 | 0.00 | 0.00 | 0.00 | 53 | 1008.7 |
| 20260905004503 | 30 | 190 | 0.0 | 3.2 | 0.00 | 0.00 | 0.00 | 53 | 1009.9 |
| 20260905004003 | 30 | 190 | 0.0 | 0.0 | 0.00 | 0.00 | 0.00 | 53 | 1009.9 |
| 20260905003504 | 30 | 190 | 0.0 | 3.2 | 0.00 | 0.00 | 0.00 | 52 | 1009.7 |
| 20260905003111 | 30 | 190 | 0.0 | 9.7 | 0.00 | 0.00 | 0.00 | 50 | 1008.4 |
| 20260905003003 | 30 | 190 | 0.0 | 6.4 | 0.00 | 0.00 | 0.00 | 51 | 1009.7 |
| 20260905002502 | 30 | 190 | 0.0 | 11.3 | 0.00 | 0.00 | 0.00 | 51 | 1009.6 |
| 20260905002002 | 30 | 190 | 3.2 | 11.3 | 0.00 | 0.00 | 0.00 | 51 | 1009.6 |
| 20260905001608 | 30 | 190 | 3.2 | 14.5 | 0.00 | 0.00 | 0.00 | 52 | 1008.3 |
| 20260905001504 | 30 | 190 | 1.6 | 14.5 | 0.00 | 0.00 | 0.00 | 52 | 1009.6 |
| 20260905001003 | 30 | 190 | 3.2 | 16.1 | 0.00 | 0.00 | 0.00 | 52 | 1009.5 |
| 20260905000502 | 31 | 190 | 8.0 | 16.1 | 0.00 | 0.00 | 0.00 | 50 | 1009.5 |
| 20260905000113 | 31 | 190 | 3.2 | 11.3 | 0.00 | 0.00 | 0.00 | 51 | 1008.0 |
| 20260905000002 | 31 | 190 | 3.2 | 8.0 | 0.00 | 0.00 | 0.00 | 51 | 1009.3 |
| 20260904235503 | 31 | 190 | 3.2 | 12.9 | 0.00 | 0.00 | 0.00 | 51 | 1009.2 |
| 20260904235002 | 31 | 190 | 4.8 | 14.5 | 0.00 | 0.00 | 0.00 | 51 | 1009.0 |
| 20260904234602 | 31 | 190 | 4.8 | 17.7 | 0.00 | 0.00 | 0.00 | 50 | 1007.9 |
| 20260904234502 | 31 | 190 | 4.8 | 17.7 | 0.00 | 0.00 | 0.00 | 50 | 1009.0 |
| 20260904234001 | 32 | 190 | 6.4 | 17.7 | 0.00 | 0.00 | 0.00 | 49 | 1009.0 |
| 20260904233502 | 32 | 190 | 1.6 | 12.9 | 0.00 | 0.00 | 0.00 | 47 | 1009.1 |
| 20260904233122 | 32 | 0 | 4.8 | 12.9 | 0.00 | 0.00 | 0.00 | 45 | 1007.8 |
| 20260904233001 | 32 | 190 | 4.8 | 12.9 | 0.00 | 0.00 | 0.00 | 45 | 1009.1 |
| 20260904232501 | 33 | 190 | 3.2 | 9.7 | 0.00 | 0.00 | 0.00 | 44 | 1008.9 |
| 20260904232100 | 33 | 190 | 3.2 | 11.3 | 0.00 | 0.00 | 0.00 | 44 | 1008.8 |
| 20260904231609 | 33 | 190 | 4.8 | 11.3 | 0.00 | 0.00 | 0.00 | 44 | 1007.5 |
| 20260904231600 | 33 | 190 | 4.8 | 11.3 | 0.00 | 0.00 | 0.00 | 44 | 1008.8 |
| 20260904231100 | 33 | 190 | 3.2 | 11.3 | 0.00 | 0.00 | 0.00 | 46 | 1008.7 |
| 20260904230600 | 33 | 190 | 4.8 | 11.3 | 0.00 | 0.00 | 0.00 | 45 | 1008.7 |
| 20260904230159 | 33 | 190 | 3.2 | 11.3 | 0.00 | 0.00 | 0.00 | 45 | 1008.6 |
| 20260904230119 | 33 | 190 | 3.2 | 11.3 | 0.00 | 0.00 | 0.00 | 43 | 1007.4 |
| 20260904225557 | 32 | 190 | 3.2 | 11.3 | 0.00 | 0.00 | 0.00 | 42 | 1008.6 |
| 20260904225057 | 32 | 190 | 4.8 | 14.5 | 0.00 | 0.00 | 0.00 | 44 | 1008.6 |
| 20260904224608 | 32 | 190 | 6.4 | 14.5 | 0.00 | 0.00 | 0.00 | 43 | 1007.2 |
| 20260904224558 | 32 | 190 | 6.4 | 14.5 | 0.00 | 0.00 | 0.00 | 44 | 1008.5 |
| 20260904224058 | 32 | 190 | 3.2 | 11.3 | 0.00 | 0.00 | 0.00 | 43 | 1008.5 |
| 20260904223557 | 32 | 190 | 4.8 | 14.5 | 0.00 | 0.00 | 0.00 | 43 | 1008.4 |
| 20260904223132 | 32 | 190 | 6.4 | 14.5 | 0.00 | 0.00 | 0.00 | 42 | 1007.2 |
| 20260904223104 | 32 | 190 | 4.8 | 14.5 | 0.00 | 0.00 | 0.00 | 42 | 1008.4 |
| 20260904222556 | 33 | 190 | 4.8 | 11.3 | 0.00 | 0.00 | 0.00 | 42 | 1008.5 |
| 20260904222100 | 33 | 190 | 3.2 | 11.3 | 0.00 | 0.00 | 0.00 | 42 | 1008.5 |
| 20260904221606 | 33 | 190 | 4.8 | 17.7 | 0.00 | 0.00 | 0.00 | 41 | 1007.3 |
| 20260904221557 | 33 | 190 | 4.8 | 17.7 | 0.00 | 0.00 | 0.00 | 42 | 1008.6 |
| 20260904221056 | 33 | 190 | 6.4 | 16.1 | 0.00 | 0.00 | 0.00 | 42 | 1008.6 |
| 20260904220554 | 33 | 190 | 1.6 | 6.4 | 0.00 | 0.00 | 0.00 | 41 | 1008.7 |
| 20260904220107 | 33 | 190 | 1.6 | 8.0 | 0.00 | 0.00 | 0.00 | 41 | 1008.7 |
| 20260904220105 | 33 | 190 | 3.2 | 8.0 | 0.00 | 0.00 | 0.00 | 40 | 1007.4 |
| 20260904215552 | 33 | 190 | 3.2 | 8.0 | 0.00 | 0.00 | 0.00 | 39 | 1008.8 |
| 20260904215050 | 33 | 190 | 0.0 | 8.0 | 0.00 | 0.00 | 0.00 | 39 | 1008.9 |
| 20260904214604 | 33 | 190 | 0.0 | 11.3 | 0.00 | 0.00 | 0.00 | 38 | 1007.6 |
| 20260904214549 | 33 | 190 | 0.0 | 8.0 | 0.00 | 0.00 | 0.00 | 38 | 1009.0 |
| 20260904214049 | 33 | 190 | 3.2 | 11.3 | 0.00 | 0.00 | 0.00 | 38 | 1009.1 |
| 20260904213549 | 33 | 190 | 6.4 | 11.3 | 0.00 | 0.00 | 0.00 | 38 | 1009.2 |
| 20260904213104 | 33 | 190 | 3.2 | 11.3 | 0.00 | 0.00 | 0.00 | 38 | 1008.0 |
| 20260904213048 | 33 | 190 | 1.6 | 11.3 | 0.00 | 0.00 | 0.00 | 38 | 1009.2 |
| 20260904212547 | 34 | 190 | 4.8 | 11.3 | 0.00 | 0.00 | 0.00 | 38 | 1009.4 |
| 20260904212045 | 34 | 190 | 0.0 | 6.4 | 0.00 | 0.00 | 0.00 | 38 | 1009.5 |
| 20260904211602 | 34 | 190 | 1.6 | 6.4 | 0.00 | 0.00 | 0.00 | 37 | 1008.3 |
| 20260904211546 | 34 | 190 | 1.6 | 6.4 | 0.00 | 0.00 | 0.00 | 38 | 1009.7 |
| 20260904211044 | 33 | 190 | 1.6 | 8.0 | 0.00 | 0.00 | 0.00 | 39 | 1009.7 |
| 20260904210543 | 33 | 190 | 1.6 | 8.0 | 0.00 | 0.00 | 0.00 | 40 | 1009.8 |
| 20260904210120 | 33 | 190 | 0.0 | 11.3 | 0.00 | 0.00 | 0.00 | 39 | 1008.6 |
| 20260904210047 | 33 | 190 | 1.6 | 9.7 | 0.00 | 0.00 | 0.00 | 40 | 1010.0 |
| 20260904205541 | 33 | 190 | 3.2 | 11.3 | 0.00 | 0.00 | 0.00 | 39 | 1010.1 |
| 20260904205038 | 33 | 190 | 4.8 | 11.3 | 0.00 | 0.00 | 0.00 | 40 | 1010.2 |
| 20260904204602 | 33 | 190 | 3.2 | 11.3 | 0.00 | 0.00 | 0.00 | 42 | 1009.0 |
| 20260904204538 | 33 | 190 | 1.6 | 11.3 | 0.00 | 0.00 | 0.00 | 42 | 1010.2 |
| 20260904204037 | 33 | 190 | 0.0 | 9.7 | 0.00 | 0.00 | 0.00 | 41 | 1010.4 |
| 20260904203536 | 32 | 190 | 1.6 | 11.3 | 0.00 | 0.00 | 0.00 | 41 | 1010.6 |
| 20260904203105 | 32 | 190 | 4.8 | 12.9 | 0.00 | 0.00 | 0.00 | 42 | 1009.5 |
| 20260904203036 | 32 | 190 | 3.2 | 12.9 | 0.00 | 0.00 | 0.00 | 42 | 1010.7 |
| 20260904202535 | 33 | 190 | 6.4 | 12.9 | 0.00 | 0.00 | 0.00 | 43 | 1010.8 |
| 20260904202033 | 32 | 190 | 1.6 | 12.9 | 0.00 | 0.00 | 0.00 | 43 | 1010.8 |
| 20260904201601 | 32 | 190 | 1.6 | 11.3 | 0.00 | 0.00 | 0.00 | 44 | 1009.8 |
| 20260904201531 | 32 | 190 | 1.6 | 11.3 | 0.00 | 0.00 | 0.00 | 44 | 1010.9 |
| 20260904201030 | 32 | 190 | 3.2 | 14.5 | 0.00 | 0.00 | 0.00 | 44 | 1011.0 |
| 20260904200532 | 32 | 190 | 6.4 | 14.5 | 0.00 | 0.00 | 0.00 | 44 | 1011.1 |
| 20260904200105 | 32 | 190 | 1.6 | 11.3 | 0.00 | 0.00 | 0.00 | 44 | 1010.0 |
| 20260904200046 | 32 | 190 | 0.0 | 11.3 | 0.00 | 0.00 | 0.00 | 46 | 1011.2 |
| 20260904195528 | 32 | 190 | 4.8 | 11.3 | 0.00 | 0.00 | 0.00 | 46 | 1011.3 |
| 20260904195027 | 32 | 190 | 1.6 | 6.4 | 0.00 | 0.00 | 0.00 | 46 | 1011.3 |
| 20260904194606 | 32 | 190 | 1.6 | 8.0 | 0.00 | 0.00 | 0.00 | 45 | 1010.2 |
| 20260904194539 | 32 | 190 | 3.2 | 8.0 | 0.00 | 0.00 | 0.00 | 46 | 1011.4 |
| 20260904194025 | 32 | 190 | 4.8 | 9.7 | 0.00 | 0.00 | 0.00 | 46 | 1011.5 |
| 20260904193524 | 32 | 190 | 4.8 | 14.5 | 0.00 | 0.00 | 0.00 | 47 | 1011.7 |
| 20260904193125 | 32 | 190 | 1.6 | 8.0 | 0.00 | 0.00 | 0.00 | 47 | 1010.5 |
| 20260904193024 | 32 | 190 | 0.0 | 8.0 | 0.00 | 0.00 | 0.00 | 48 | 1011.8 |
| 20260904192526 | 32 | 190 | 3.2 | 9.7 | 0.00 | 0.00 | 0.00 | 49 | 1011.9 |
| 20260904192020 | 32 | 190 | 4.8 | 9.7 | 0.00 | 0.00 | 0.00 | 50 | 1012.0 |
| 20260904191602 | 32 | 0 | 0.0 | 14.5 | 0.00 | 0.00 | 0.00 | 50 | 1010.9 |
| 20260904191521 | 31 | 190 | 1.6 | 14.5 | 0.00 | 0.00 | 0.00 | 50 | 1012.2 |
| 20260904191019 | 31 | 190 | 6.4 | 14.5 | 0.00 | 0.00 | 0.00 | 50 | 1012.2 |
| 20260904190520 | 31 | 190 | 4.8 | 14.5 | 0.00 | 0.00 | 0.00 | 51 | 1012.2 |
| 20260904190111 | 31 | 190 | 4.8 | 14.5 | 0.00 | 0.00 | 0.00 | 50 | 1011.1 |
| 20260904190017 | 31 | 190 | 1.6 | 14.5 | 0.00 | 0.00 | 0.00 | 51 | 1012.4 |
| 20260904185516 | 31 | 190 | 1.6 | 6.4 | 0.00 | 0.00 | 0.00 | 52 | 1012.6 |
| 20260904185015 | 31 | 190 | 0.0 | 9.7 | 0.00 | 0.00 | 0.00 | 50 | 1012.6 |
| 20260904184605 | 31 | 190 | 4.8 | 11.3 | 0.00 | 0.00 | 0.00 | 49 | 1011.4 |
| 20260904184514 | 31 | 190 | 3.2 | 11.3 | 0.00 | 0.00 | 0.00 | 50 | 1012.8 |
| 20260904184015 | 31 | 190 | 0.0 | 9.7 | 0.00 | 0.00 | 0.00 | 50 | 1012.8 |
| 20260904183514 | 32 | 190 | 3.2 | 9.7 | 0.00 | 0.00 | 0.00 | 49 | 1012.9 |
| 20260904183103 | 32 | 190 | 0.0 | 6.4 | 0.00 | 0.00 | 0.00 | 49 | 1011.6 |
| 20260904183011 | 32 | 190 | 0.0 | 6.4 | 0.00 | 0.00 | 0.00 | 50 | 1013.1 |
| 20260904182509 | 31 | 190 | 0.0 | 6.4 | 0.00 | 0.00 | 0.00 | 52 | 1013.1 |
| 20260904182010 | 31 | 190 | 0.0 | 9.7 | 0.00 | 0.00 | 0.00 | 51 | 1013.2 |
| 20260904181600 | 31 | 190 | 3.2 | 9.7 | 0.00 | 0.00 | 0.00 | 50 | 1011.8 |
| 20260904181509 | 31 | 190 | 3.2 | 9.7 | 0.00 | 0.00 | 0.00 | 52 | 1013.3 |
| 20260904181009 | 30 | 190 | 3.2 | 8.0 | 0.00 | 0.00 | 0.00 | 53 | 1013.4 |
| 20260904180507 | 30 | 190 | 1.6 | 9.7 | 0.00 | 0.00 | 0.00 | 55 | 1013.4 |
| 20260904180107 | 30 | 0 | 4.8 | 9.7 | 0.00 | 0.00 | 0.00 | 52 | 1011.9 |
| 20260904180006 | 30 | 190 | 4.8 | 9.7 | 0.00 | 0.00 | 0.00 | 55 | 1013.5 |
| 20260904175504 | 30 | 190 | 4.8 | 8.0 | 0.00 | 0.00 | 0.00 | 53 | 1013.5 |
| 20260904175003 | 30 | 190 | 1.6 | 8.0 | 0.00 | 0.00 | 0.00 | 55 | 1013.6 |
| 20260904174615 | 30 | 190 | 0.0 | 6.4 | 0.00 | 0.00 | 0.00 | 57 | 1012.1 |
| 20260904174508 | 30 | 190 | 0.0 | 6.4 | 0.00 | 0.00 | 0.00 | 58 | 1013.7 |
| 20260904174002 | 29 | 190 | 0.0 | 4.8 | 0.00 | 0.00 | 0.00 | 59 | 1013.7 |
| 20260904173601 | 29 | 190 | 1.6 | 8.0 | 0.00 | 0.00 | 0.00 | 59 | 1013.8 |
| 20260904173109 | 29 | 190 | 0.0 | 11.3 | 0.00 | 0.00 | 0.00 | 59 | 1012.4 |
| 20260904173106 | 29 | 190 | 0.0 | 8.0 | 0.00 | 0.00 | 0.00 | 59 | 1013.9 |
| 20260904172559 | 29 | 190 | 0.0 | 11.3 | 0.00 | 0.00 | 0.00 | 61 | 1014.0 |
| 20260904172058 | 28 | 190 | 1.6 | 11.3 | 0.00 | 0.00 | 0.00 | 64 | 1014.1 |
| 20260904171604 | 28 | 190 | 0.0 | 9.7 | 0.00 | 0.00 | 0.00 | 63 | 1014.1 |
| 20260904171057 | 28 | 190 | 4.8 | 9.7 | 0.00 | 0.00 | 0.00 | 63 | 1014.2 |
| 20260904170557 | 28 | 190 | 0.0 | 6.4 | 0.00 | 0.00 | 0.00 | 63 | 1014.2 |
| 20260904170122 | 28 | 190 | 1.6 | 8.0 | 0.00 | 0.00 | 0.00 | 61 | 1012.7 |
| 20260904170058 | 28 | 190 | 1.6 | 8.0 | 0.00 | 0.00 | 0.00 | 62 | 1014.2 |
| 20260904165557 | 28 | 190 | 4.8 | 8.0 | 0.00 | 0.00 | 0.00 | 62 | 1014.2 |
| 20260904165057 | 28 | 190 | 0.0 | 8.0 | 0.00 | 0.00 | 0.00 | 62 | 1014.3 |
| 20260904164608 | 28 | 190 | 1.6 | 8.0 | 0.00 | 0.00 | 0.00 | 61 | 1012.8 |
| 20260904164556 | 28 | 190 | 3.2 | 8.0 | 0.00 | 0.00 | 0.00 | 62 | 1014.3 |
| 20260904164054 | 28 | 190 | 0.0 | 4.8 | 0.00 | 0.00 | 0.00 | 64 | 1014.4 |
| 20260904163552 | 28 | 190 | 0.0 | 6.4 | 0.00 | 0.00 | 0.00 | 65 | 1014.5 |
| 20260904163112 | 27 | 190 | 3.2 | 6.4 | 0.00 | 0.00 | 0.00 | 64 | 1013.1 |
| 20260904163055 | 27 | 190 | 3.2 | 6.4 | 0.00 | 0.00 | 0.00 | 65 | 1014.5 |
| 20260904162551 | 27 | 190 | 1.6 | 6.4 | 0.00 | 0.00 | 0.00 | 66 | 1014.6 |
| 20260904162048 | 27 | 190 | 1.6 | 6.4 | 0.00 | 0.00 | 0.00 | 68 | 1014.7 |
| 20260904161612 | 27 | 0 | 1.6 | 8.0 | 0.00 | 0.00 | 0.00 | 66 | 1013.3 |
| 20260904161601 | 26 | 190 | 1.6 | 8.0 | 0.00 | 0.00 | 0.00 | 67 | 1014.8 |
| 20260904161050 | 26 | 190 | 3.2 | 8.0 | 0.00 | 0.00 | 0.00 | 67 | 1014.9 |
| 20260904160549 | 27 | 190 | 3.2 | 8.0 | 0.00 | 0.00 | 0.00 | 67 | 1014.9 |
| 20260904160104 | 27 | 190 | 1.6 | 6.4 | 0.00 | 0.00 | 0.00 | 66 | 1013.5 |
| 20260904160048 | 27 | 190 | 0.0 | 6.4 | 0.00 | 0.00 | 0.00 | 67 | 1015.0 |
| 20260904155549 | 27 | 190 | 0.0 | 6.4 | 0.00 | 0.00 | 0.00 | 67 | 1015.0 |
| 20260904155046 | 26 | 190 | 0.0 | 6.4 | 0.00 | 0.00 | 0.00 | 68 | 1015.1 |
| 20260904154601 | 26 | 0 | 1.6 | 4.8 | 0.00 | 0.00 | 0.00 | 68 | 1013.7 |
| 20260904154545 | 26 | 190 | 0.0 | 4.8 | 0.00 | 0.00 | 0.00 | 69 | 1015.2 |
| 20260904154044 | 26 | 190 | 0.0 | 0.0 | 0.00 | 0.00 | 0.00 | 70 | 1015.1 |
| 20260904153543 | 26 | 190 | 0.0 | 4.8 | 0.00 | 0.00 | 0.00 | 69 | 1015.2 |
| 20260904153108 | 26 | 0 | 0.0 | 4.8 | 0.00 | 0.00 | 0.00 | 69 | 1013.7 |
| 20260904153042 | 26 | 190 | 0.0 | 4.8 | 0.00 | 0.00 | 0.00 | 70 | 1015.2 |
| 20260904152540 | 26 | 190 | 0.0 | 3.2 | 0.00 | 0.00 | 0.00 | 69 | 1015.2 |
| 20260904152039 | 25 | 190 | 0.0 | 0.0 | 0.00 | 0.00 | 0.00 | 72 | 1015.2 |
| 20260904151606 | 25 | 0 | 0.0 | 4.8 | 0.00 | 0.00 | 0.00 | 72 | 1013.7 |
| 20260904151538 | 25 | 190 | 0.0 | 4.8 | 0.00 | 0.00 | 0.00 | 72 | 1015.2 |
| 20260904151037 | 25 | 190 | 1.6 | 4.8 | 0.00 | 0.00 | 0.00 | 72 | 1015.2 |
| 20260904150536 | 25 | 190 | 0.0 | 3.2 | 0.00 | 0.00 | 0.00 | 73 | 1015.2 |
| 20260904150037 | 25 | 190 | 0.0 | 1.6 | 0.00 | 0.00 | 0.00 | 73 | 1015.2 |
| 20260904145533 | 24 | 190 | 0.0 | 3.2 | 0.00 | 0.00 | 0.00 | 75 | 1015.2 |
| 20260904145032 | 24 | 190 | 0.0 | 3.2 | 0.00 | 0.00 | 0.00 | 77 | 1015.2 |
| 20260904144613 | 24 | 0 | 0.0 | 1.6 | 0.00 | 0.00 | 0.00 | 77 | 1013.7 |
| 20260904144530 | 24 | 190 | 0.0 | 1.6 | 0.00 | 0.00 | 0.00 | 77 | 1015.3 |
| 20260904144029 | 23 | 190 | 0.0 | 0.0 | 0.00 | 0.00 | 0.00 | 80 | 1015.2 |
| 20260904143528 | 23 | 190 | 0.0 | 0.0 | 0.00 | 0.00 | 0.00 | 79 | 1015.3 |
| 20260904143118 | 23 | 190 | 0.0 | 3.2 | 0.00 | 0.00 | 0.00 | 80 | 1013.6 |
| 20260904143027 | 23 | 190 | 0.0 | 3.2 | 0.00 | 0.00 | 0.00 | 81 | 1015.1 |
| 20260904142525 | 23 | 190 | 0.0 | 3.2 | 0.00 | 0.00 | 0.00 | 82 | 1015.2 |
| 20260904142024 | 23 | 190 | 0.0 | 3.2 | 0.00 | 0.00 | 0.00 | 82 | 1015.2 |
| 20260904141606 | 22 | 0 | 0.0 | 0.0 | 0.00 | 0.00 | 0.00 | 83 | 1013.4 |
| 20260904141524 | 22 | 190 | 0.0 | 0.0 | 0.00 | 0.00 | 0.00 | 84 | 1015.1 |
| 20260904141022 | 22 | 190 | 0.0 | 0.0 | 0.00 | 0.00 | 0.00 | 86 | 1015.1 |
| 20260904140522 | 22 | 190 | 0.0 | 1.6 | 0.00 | 0.00 | 0.00 | 87 | 1015.1 |
| 20260904140109 | 22 | 0 | 0.0 | 1.6 | 0.00 | 0.00 | 0.00 | 87 | 1013.3 |
| 20260904140022 | 22 | 190 | 0.0 | 1.6 | 0.00 | 0.00 | 0.00 | 87 | 1015.0 |
| 20260904135521 | 21 | 190 | 0.0 | 0.0 | 0.00 | 0.00 | 0.00 | 88 | 1014.9 |
| 20260904135021 | 21 | 190 | 0.0 | 0.0 | 0.00 | 0.00 | 0.00 | 87 | 1014.9 |
| 20260904134607 | 21 | 0 | 0.0 | 0.0 | 0.00 | 0.00 | 0.00 | 88 | 1013.2 |
| 20260904134520 | 21 | 190 | 0.0 | 0.0 | 0.00 | 0.00 | 0.00 | 88 | 1014.9 |
| 20260904134019 | 21 | 190 | 0.0 | 0.0 | 0.00 | 0.00 | 0.00 | 90 | 1014.7 |
| 20260904133519 | 21 | 190 | 0.0 | 0.0 | 0.00 | 0.00 | 0.00 | 90 | 1014.7 |
| 20260904133113 | 21 | 0 | 0.0 | 3.2 | 0.00 | 0.00 | 0.00 | 90 | 1012.9 |
| 20260904133019 | 21 | 190 | 0.0 | 3.2 | 0.00 | 0.00 | 0.00 | 91 | 1014.6 |
| 20260904132518 | 20 | 190 | 0.0 | 3.2 | 0.00 | 0.00 | 0.00 | 91 | 1014.5 |
| 20260904132018 | 20 | 190 | 0.0 | 0.0 | 0.00 | 0.00 | 0.00 | 92 | 1014.5 |
| 20260904131606 | 20 | 0 | 0.0 | 0.0 | 0.00 | 0.00 | 0.00 | 92 | 1012.7 |
| 20260904131518 | 20 | 190 | 0.0 | 0.0 | 0.00 | 0.00 | 0.00 | 93 | 1014.4 |
| 20260904131016 | 20 | 190 | 0.0 | 0.0 | 0.00 | 0.00 | 0.00 | 93 | 1014.3 |
| 20260904130516 | 20 | 190 | 0.0 | 1.6 | 0.00 | 0.00 | 0.00 | 93 | 1014.3 |
| 20260904130104 | 20 | 0 | 0.0 | 1.6 | 0.00 | 0.00 | 0.00 | 92 | 1012.6 |
| 20260904130018 | 20 | 190 | 0.0 | 1.6 | 0.00 | 0.00 | 0.00 | 93 | 1014.3 |
| 20260904125516 | 20 | 190 | 0.0 | 1.6 | 0.00 | 0.00 | 0.00 | 93 | 1014.3 |
| 20260904125018 | 20 | 190 | 0.0 | 0.0 | 0.00 | 0.00 | 0.00 | 93 | 1014.3 |
| 20260904124609 | 20 | 0 | 0.0 | 0.0 | 0.00 | 0.00 | 0.00 | 93 | 1012.5 |
| 20260904124523 | 20 | 190 | 0.0 | 0.0 | 0.00 | 0.00 | 0.00 | 93 | 1014.2 |
| 20260904124014 | 20 | 190 | 0.0 | 0.0 | 0.00 | 0.00 | 0.00 | 93 | 1014.1 |
| 20260904123519 | 20 | 190 | 0.0 | 0.0 | 0.00 | 0.00 | 0.00 | 93 | 1014.1 |
| 20260904123104 | 20 | 0 | 0.0 | 3.2 | 0.00 | 0.00 | 0.00 | 93 | 1012.4 |
| 20260904123014 | 20 | 190 | 0.0 | 3.2 | 0.00 | 0.00 | 0.00 | 93 | 1014.0 |
| 20260904122514 | 20 | 190 | 0.0 | 3.2 | 0.00 | 0.00 | 0.00 | 93 | 1013.9 |
| 20260904122014 | 20 | 190 | 0.0 | 3.2 | 0.00 | 0.00 | 0.00 | 93 | 1013.9 |
| 20260904121606 | 20 | 0 | 0.0 | 4.8 | 0.00 | 0.00 | 0.00 | 93 | 1012.2 |
| 20260904121514 | 20 | 190 | 0.0 | 3.2 | 0.00 | 0.00 | 0.00 | 93 | 1013.8 |
| 20260904121015 | 20 | 190 | 0.0 | 4.8 | 0.00 | 0.00 | 0.00 | 93 | 1013.9 |
| 20260904120512 | 20 | 190 | 0.0 | 1.6 | 0.00 | 0.00 | 0.00 | 93 | 1013.9 |
| 20260904120109 | 20 | 0 | 0.0 | 1.6 | 0.00 | 0.00 | 0.00 | 92 | 1012.1 |
| 20260904120016 | 20 | 190 | 0.0 | 0.0 | 0.00 | 0.00 | 0.00 | 92 | 1013.7 |
| 20260904115510 | 20 | 190 | 0.0 | 3.2 | 0.00 | 0.00 | 0.00 | 92 | 1013.7 |
| 20260904115010 | 20 | 190 | 0.0 | 3.2 | 0.00 | 0.00 | 0.00 | 92 | 1013.7 |
| 20260904114605 | 20 | 0 | 0.0 | 0.0 | 0.00 | 0.00 | 0.00 | 91 | 1012.0 |
| 20260904114509 | 20 | 190 | 0.0 | 0.0 | 0.00 | 0.00 | 0.00 | 92 | 1013.7 |
| 20260904114009 | 20 | 190 | 0.0 | 0.0 | 0.00 | 0.00 | 0.00 | 91 | 1013.7 |
| 20260904113509 | 20 | 190 | 0.0 | 0.0 | 0.00 | 0.00 | 0.00 | 91 | 1013.7 |
| 20260904113103 | 20 | 0 | 0.0 | 0.0 | 0.00 | 0.00 | 0.00 | 91 | 1012.1 |
| 20260904113008 | 20 | 190 | 0.0 | 0.0 | 0.00 | 0.00 | 0.00 | 91 | 1013.8 |
| 20260904112507 | 20 | 190 | 0.0 | 0.0 | 0.00 | 0.00 | 0.00 | 91 | 1013.8 |
| 20260904112007 | 20 | 190 | 0.0 | 0.0 | 0.00 | 0.00 | 0.00 | 91 | 1013.7 |
| 20260904111609 | 21 | 0 | 0.0 | 0.0 | 0.00 | 0.00 | 0.00 | 91 | 1012.2 |
| 20260904111506 | 21 | 190 | 0.0 | 0.0 | 0.00 | 0.00 | 0.00 | 91 | 1013.8 |
| 20260904111006 | 21 | 190 | 0.0 | 0.0 | 0.00 | 0.00 | 0.00 | 91 | 1013.7 |
| 20260904110506 | 21 | 190 | 0.0 | 0.0 | 0.00 | 0.00 | 0.00 | 91 | 1013.7 |
| 20260904110108 | 21 | 0 | 0.0 | 0.0 | 0.00 | 0.00 | 0.00 | 91 | 1012.1 |
| 20260904110006 | 21 | 190 | 0.0 | 0.0 | 0.00 | 0.00 | 0.00 | 92 | 1013.7 |
| 20260904105505 | 21 | 190 | 0.0 | 0.0 | 0.00 | 0.00 | 0.00 | 91 | 1013.8 |
| 20260904105005 | 21 | 190 | 0.0 | 0.0 | 0.00 | 0.00 | 0.00 | 91 | 1013.9 |
| 20260904104612 | 21 | 0 | 0.0 | 0.0 | 0.00 | 0.00 | 0.00 | 91 | 1012.2 |
| 20260904104505 | 21 | 190 | 0.0 | 0.0 | 0.00 | 0.00 | 0.00 | 91 | 1014.0 |
| 20260904104005 | 21 | 190 | 0.0 | 0.0 | 0.00 | 0.00 | 0.00 | 91 | 1013.9 |
| 20260904103505 | 21 | 190 | 0.0 | 0.0 | 0.00 | 0.00 | 0.00 | 91 | 1013.9 |
| 20260904103110 | 21 | 0 | 0.0 | 0.0 | 0.00 | 0.00 | 0.00 | 91 | 1012.1 |
| 20260904103004 | 21 | 190 | 0.0 | 0.0 | 0.00 | 0.00 | 0.00 | 91 | 1013.8 |
| 20260904102504 | 21 | 190 | 0.0 | 0.0 | 0.00 | 0.00 | 0.00 | 91 | 1013.7 |
| 20260904102004 | 21 | 190 | 0.0 | 0.0 | 0.00 | 0.00 | 0.00 | 91 | 1013.9 |
| 20260904101604 | 21 | 0 | 0.0 | 0.0 | 0.00 | 0.00 | 0.00 | 91 | 1012.2 |
| 20260904101509 | 21 | 190 | 0.0 | 0.0 | 0.00 | 0.00 | 0.00 | 91 | 1013.9 |
| 20260904101003 | 21 | 190 | 0.0 | 0.0 | 0.00 | 0.00 | 0.00 | 92 | 1013.9 |
| 20260904100503 | 21 | 190 | 0.0 | 0.0 | 0.00 | 0.00 | 0.00 | 91 | 1013.9 |
| 20260904100126 | 21 | 0 | 0.0 | 0.0 | 0.00 | 0.00 | 0.00 | 91 | 1012.2 |
| 20260904100005 | 21 | 190 | 0.0 | 0.0 | 0.00 | 0.00 | 0.00 | 92 | 1013.9 |
| 20260904095504 | 21 | 190 | 0.0 | 3.2 | 0.00 | 0.00 | 0.00 | 91 | 1014.0 |
| 20260904095000 | 21 | 190 | 1.6 | 3.2 | 0.00 | 0.00 | 0.00 | 91 | 1014.0 |
| 20260904094610 | 21 | 190 | 0.0 | 3.2 | 0.00 | 0.00 | 0.00 | 91 | 1014.0 |
| 20260904094604 | 21 | 190 | 0.0 | 3.2 | 0.00 | 0.00 | 0.00 | 91 | 1012.4 |
| 20260904094059 | 21 | 190 | 1.6 | 3.2 | 0.00 | 0.00 | 0.00 | 91 | 1014.0 |
| 20260904093601 | 21 | 190 | 0.0 | 3.2 | 0.00 | 0.00 | 0.00 | 90 | 1014.0 |
| 20260904093112 | 21 | 190 | 0.0 | 0.0 | 0.00 | 0.00 | 0.00 | 90 | 1014.0 |
| 20260904093106 | 21 | 0 | 0.0 | 0.0 | 0.00 | 0.00 | 0.00 | 90 | 1012.2 |
| 20260904092558 | 21 | 190 | 0.0 | 0.0 | 0.00 | 0.00 | 0.00 | 90 | 1014.0 |
| 20260904092058 | 21 | 190 | 0.0 | 0.0 | 0.00 | 0.00 | 0.00 | 90 | 1014.0 |
| 20260904091605 | 21 | 0 | 0.0 | 0.0 | 0.00 | 0.00 | 0.00 | 90 | 1012.2 |
| 20260904091558 | 21 | 190 | 0.0 | 0.0 | 0.00 | 0.00 | 0.00 | 90 | 1014.0 |
| 20260904091059 | 21 | 190 | 0.0 | 0.0 | 0.00 | 0.00 | 0.00 | 90 | 1014.0 |
| 20260904090557 | 21 | 190 | 0.0 | 0.0 | 0.00 | 0.00 | 0.00 | 90 | 1013.9 |
| 20260904090132 | 21 | 0 | 0.0 | 0.0 | 0.00 | 0.00 | 0.00 | 89 | 1012.0 |
| 20260904090058 | 21 | 190 | 0.0 | 0.0 | 0.00 | 0.00 | 0.00 | 90 | 1013.7 |
| 20260904085557 | 21 | 190 | 0.0 | 3.2 | 0.00 | 0.00 | 0.00 | 90 | 1013.6 |
| 20260904085055 | 21 | 190 | 0.0 | 3.2 | 0.00 | 0.00 | 0.00 | 90 | 1013.7 |
| 20260904084609 | 21 | 190 | 0.0 | 3.2 | 0.00 | 0.00 | 0.00 | 88 | 1012.0 |
| 20260904084556 | 21 | 190 | 0.0 | 3.2 | 0.00 | 0.00 | 0.00 | 89 | 1013.8 |
| 20260904084053 | 22 | 190 | 1.6 | 3.2 | 0.00 | 0.00 | 0.00 | 88 | 1013.7 |
| 20260904083551 | 22 | 190 | 0.0 | 3.2 | 0.00 | 0.00 | 0.00 | 87 | 1013.7 |
| 20260904083109 | 22 | 0 | 0.0 | 0.0 | 0.00 | 0.00 | 0.00 | 86 | 1011.9 |
| 20260904083051 | 22 | 190 | 0.0 | 0.0 | 0.00 | 0.00 | 0.00 | 86 | 1013.7 |
| 20260904082552 | 22 | 190 | 0.0 | 0.0 | 0.00 | 0.00 | 0.00 | 85 | 1013.7 |
| 20260904082050 | 22 | 190 | 0.0 | 0.0 | 0.00 | 0.00 | 0.00 | 87 | 1013.7 |
| 20260904081600 | 22 | 0 | 0.0 | 0.0 | 0.00 | 0.00 | 0.00 | 87 | 1012.1 |
| 20260904081550 | 22 | 190 | 0.0 | 0.0 | 0.00 | 0.00 | 0.00 | 87 | 1013.9 |
| 20260904081049 | 22 | 190 | 0.0 | 0.0 | 0.00 | 0.00 | 0.00 | 88 | 1013.9 |
| 20260904080549 | 22 | 190 | 0.0 | 0.0 | 0.00 | 0.00 | 0.00 | 89 | 1013.9 |
| 20260904080107 | 22 | 0 | 0.0 | 0.0 | 0.00 | 0.00 | 0.00 | 88 | 1012.1 |
| 20260904080049 | 22 | 190 | 0.0 | 0.0 | 0.00 | 0.00 | 0.00 | 88 | 1014.0 |
| 20260904075547 | 22 | 190 | 0.0 | 0.0 | 0.00 | 0.00 | 0.00 | 88 | 1014.0 |
| 20260904075047 | 22 | 190 | 0.0 | 0.0 | 0.00 | 0.00 | 0.00 | 88 | 1014.0 |
| 20260904074610 | 22 | 0 | 0.0 | 0.0 | 0.00 | 0.00 | 0.00 | 88 | 1012.1 |
| 20260904074548 | 22 | 190 | 0.0 | 0.0 | 0.00 | 0.00 | 0.00 | 88 | 1013.9 |
| 20260904074051 | 22 | 190 | 0.0 | 0.0 | 0.00 | 0.00 | 0.00 | 88 | 1014.0 |
| 20260904073547 | 22 | 190 | 0.0 | 0.0 | 0.00 | 0.00 | 0.00 | 88 | 1014.0 |
| 20260904073101 | 22 | 0 | 0.0 | 0.0 | 0.00 | 0.00 | 0.00 | 88 | 1012.2 |
| 20260904073055 | 22 | 190 | 0.0 | 0.0 | 0.00 | 0.00 | 0.00 | 89 | 1014.1 |
| 20260904072547 | 22 | 190 | 0.0 | 0.0 | 0.00 | 0.00 | 0.00 | 89 | 1014.0 |
| 20260904072046 | 22 | 190 | 0.0 | 0.0 | 0.00 | 0.00 | 0.00 | 88 | 1014.1 |
| 20260904071626 | 22 | 0 | 0.0 | 3.2 | 0.00 | 0.00 | 0.00 | 87 | 1012.3 |
| 20260904071546 | 22 | 190 | 0.0 | 3.2 | 0.00 | 0.00 | 0.00 | 88 | 1014.1 |
| 20260904071045 | 22 | 190 | 0.0 | 3.2 | 0.00 | 0.00 | 0.00 | 87 | 1014.2 |
| 20260904070545 | 22 | 190 | 0.0 | 1.6 | 0.00 | 0.00 | 0.00 | 87 | 1014.2 |
| 20260904070116 | 22 | 0 | 0.0 | 0.0 | 0.00 | 0.00 | 0.00 | 86 | 1012.3 |
| 20260904070045 | 22 | 190 | 0.0 | 0.0 | 0.00 | 0.00 | 0.00 | 87 | 1014.1 |
| 20260904065544 | 22 | 190 | 0.0 | 0.0 | 0.00 | 0.00 | 0.00 | 87 | 1014.1 |
| 20260904065043 | 22 | 190 | 0.0 | 0.0 | 0.00 | 0.00 | 0.00 | 86 | 1014.0 |
| 20260904064609 | 22 | 0 | 0.0 | 0.0 | 0.00 | 0.00 | 0.00 | 86 | 1012.1 |
| 20260904064543 | 22 | 190 | 0.0 | 0.0 | 0.00 | 0.00 | 0.00 | 86 | 1013.9 |
| 20260904064042 | 22 | 190 | 0.0 | 0.0 | 0.00 | 0.00 | 0.00 | 86 | 1014.0 |
| 20260904063542 | 22 | 190 | 0.0 | 0.0 | 0.00 | 0.00 | 0.00 | 87 | 1014.1 |
| 20260904063101 | 22 | 0 | 0.0 | 0.0 | 0.00 | 0.00 | 0.00 | 87 | 1012.4 |
| 20260904063045 | 22 | 190 | 0.0 | 0.0 | 0.00 | 0.00 | 0.00 | 87 | 1014.2 |
| 20260904062541 | 22 | 190 | 0.0 | 0.0 | 0.00 | 0.00 | 0.00 | 87 | 1014.0 |
| 20260904062040 | 22 | 190 | 0.0 | 0.0 | 0.00 | 0.00 | 0.00 | 87 | 1014.1 |
| 20260904061608 | 22 | 0 | 0.0 | 0.0 | 0.00 | 0.00 | 0.00 | 86 | 1012.4 |
| 20260904061540 | 22 | 190 | 0.0 | 0.0 | 0.00 | 0.00 | 0.00 | 87 | 1014.2 |
| 20260904061039 | 22 | 190 | 0.0 | 0.0 | 0.00 | 0.00 | 0.00 | 86 | 1014.1 |
| 20260904060538 | 22 | 190 | 0.0 | 0.0 | 0.00 | 0.00 | 0.00 | 86 | 1014.3 |
| 20260904060114 | 22 | 0 | 0.0 | 0.0 | 0.00 | 0.00 | 0.00 | 85 | 1012.5 |
| 20260904060037 | 22 | 190 | 0.0 | 0.0 | 0.00 | 0.00 | 0.00 | 86 | 1014.3 |
| 20260904055536 | 22 | 190 | 0.0 | 0.0 | 0.00 | 0.00 | 0.00 | 86 | 1014.1 |
| 20260904055036 | 22 | 190 | 0.0 | 0.0 | 0.00 | 0.00 | 0.00 | 85 | 1014.0 |
| 20260904054609 | 23 | 0 | 0.0 | 0.0 | 0.00 | 0.00 | 0.00 | 85 | 1012.1 |
| 20260904054536 | 22 | 190 | 0.0 | 0.0 | 0.00 | 0.00 | 0.00 | 85 | 1013.9 |
| 20260904054037 | 23 | 190 | 0.0 | 0.0 | 0.00 | 0.00 | 0.00 | 84 | 1013.9 |
| 20260904053535 | 23 | 190 | 0.0 | 0.0 | 0.00 | 0.00 | 0.00 | 84 | 1013.9 |
| 20260904053118 | 23 | 0 | 0.0 | 0.0 | 0.00 | 0.00 | 0.00 | 84 | 1012.1 |
| 20260904053036 | 23 | 190 | 0.0 | 0.0 | 0.00 | 0.00 | 0.00 | 84 | 1013.9 |
| 20260904052536 | 23 | 190 | 0.0 | 0.0 | 0.00 | 0.00 | 0.00 | 83 | 1013.9 |
| 20260904052038 | 23 | 190 | 0.0 | 0.0 | 0.00 | 0.00 | 0.00 | 83 | 1013.9 |
| 20260904051603 | 23 | 0 | 0.0 | 0.0 | 0.00 | 0.00 | 0.00 | 83 | 1012.1 |
| 20260904051536 | 23 | 190 | 0.0 | 0.0 | 0.00 | 0.00 | 0.00 | 83 | 1014.0 |
| 20260904051035 | 23 | 190 | 0.0 | 0.0 | 0.00 | 0.00 | 0.00 | 83 | 1014.0 |
| 20260904050535 | 23 | 190 | 0.0 | 0.0 | 0.00 | 0.00 | 0.00 | 82 | 1014.0 |
| 20260904050108 | 23 | 0 | 0.0 | 0.0 | 0.00 | 0.00 | 0.00 | 81 | 1012.2 |
| 20260904050035 | 23 | 190 | 0.0 | 0.0 | 0.00 | 0.00 | 0.00 | 82 | 1014.0 |
| 20260904045535 | 23 | 190 | 0.0 | 0.0 | 0.00 | 0.00 | 0.00 | 81 | 1014.0 |
| 20260904045035 | 23 | 190 | 0.0 | 0.0 | 0.00 | 0.00 | 0.00 | 81 | 1013.9 |
| 20260904044614 | 23 | 0 | 0.0 | 0.0 | 0.00 | 0.00 | 0.00 | 80 | 1012.0 |
| 20260904044536 | 23 | 190 | 0.0 | 0.0 | 0.00 | 0.00 | 0.00 | 80 | 1013.9 |
| 20260904044035 | 23 | 190 | 0.0 | 0.0 | 0.00 | 0.00 | 0.00 | 80 | 1013.9 |
| 20260904043534 | 23 | 190 | 0.0 | 0.0 | 0.00 | 0.00 | 0.00 | 80 | 1014.0 |
| 20260904043104 | 23 | 0 | 0.0 | 0.0 | 0.00 | 0.00 | 0.00 | 79 | 1012.2 |
| 20260904043034 | 23 | 190 | 0.0 | 0.0 | 0.00 | 0.00 | 0.00 | 79 | 1014.0 |
| 20260904042534 | 24 | 190 | 0.0 | 0.0 | 0.00 | 0.00 | 0.00 | 79 | 1013.9 |
| 20260904042035 | 24 | 190 | 0.0 | 0.0 | 0.00 | 0.00 | 0.00 | 79 | 1013.9 |
| 20260904041618 | 24 | 0 | 0.0 | 0.0 | 0.00 | 0.00 | 0.00 | 78 | 1011.8 |
| 20260904041537 | 24 | 190 | 0.0 | 0.0 | 0.00 | 0.00 | 0.00 | 79 | 1013.7 |
| 20260904041033 | 24 | 190 | 0.0 | 0.0 | 0.00 | 0.00 | 0.00 | 78 | 1013.8 |
| 20260904040536 | 24 | 190 | 0.0 | 0.0 | 0.00 | 0.00 | 0.00 | 78 | 1013.7 |
| 20260904040104 | 25 | 0 | 0.0 | 0.0 | 0.00 | 0.00 | 0.00 | 76 | 1011.7 |
| 20260904040037 | 25 | 190 | 0.0 | 0.0 | 0.00 | 0.00 | 0.00 | 76 | 1013.6 |
| 20260904035533 | 25 | 190 | 0.0 | 0.0 | 0.00 | 0.00 | 0.00 | 76 | 1013.6 |
| 20260904035033 | 25 | 190 | 0.0 | 0.0 | 0.00 | 0.00 | 0.00 | 75 | 1013.5 |
| 20260904034559 | 25 | 0 | 0.0 | 0.0 | 0.00 | 0.00 | 0.00 | 75 | 1011.6 |
| 20260904034533 | 25 | 190 | 0.0 | 0.0 | 0.00 | 0.00 | 0.00 | 75 | 1013.4 |
| 20260904034033 | 25 | 190 | 0.0 | 0.0 | 0.00 | 0.00 | 0.00 | 75 | 1013.4 |
| 20260904033533 | 25 | 190 | 0.0 | 0.0 | 0.00 | 0.00 | 0.00 | 74 | 1013.4 |
| 20260904033105 | 25 | 0 | 0.0 | 0.0 | 0.00 | 0.00 | 0.00 | 72 | 1011.5 |
| 20260904033039 | 25 | 190 | 0.0 | 0.0 | 0.00 | 0.00 | 0.00 | 72 | 1013.4 |